| time (UTC) | temp F | wind direction | speed MPH | gust MPH | rain 1hr in | rain 24hr in | rain mn in | humidity % | barometer mb |
| 20260901032028 | 57 | 205 | 3.0 | 4.0 | 0.00 | 0.02 | 0.02 | 75 | 1029.0 |
| 20260901031028 | 56 | 190 | 3.0 | 5.0 | 0.00 | 0.02 | 0.02 | 81 | 1029.1 |
| 20260901030019 | 55 | 204 | 4.0 | 7.0 | 0.00 | 0.02 | 0.02 | 85 | 1029.2 |
| 20260901025028 | 56 | 190 | 4.0 | 5.0 | 0.00 | 0.02 | 0.02 | 83 | 1029.1 |
| 20260901024028 | 57 | 353 | 2.0 | 5.0 | 0.00 | 0.02 | 0.02 | 81 | 1028.7 |
| 20260901023020 | 58 | 36 | 4.0 | 7.0 | 0.00 | 0.02 | 0.02 | 78 | 1028.7 |
| 20260901022020 | 59 | 25 | 6.0 | 9.0 | 0.02 | 0.02 | 0.02 | 77 | 1028.9 |
| 20260901021029 | 59 | 114 | 1.0 | 2.0 | 0.02 | 0.02 | 0.02 | 72 | 1028.8 |
| 20260901020049 | 59 | 182 | 2.0 | 4.0 | 0.02 | 0.02 | 0.02 | 76 | 1028.6 |
| 20260901015020 | 60 | 187 | 4.0 | 6.0 | 0.02 | 0.02 | 0.02 | 73 | 1028.3 |
| 20260901014020 | 61 | 191 | 6.0 | 9.0 | 0.02 | 0.02 | 0.02 | 69 | 1028.3 |
| 20260901013021 | 62 | 199 | 4.0 | 8.0 | 0.02 | 0.02 | 0.02 | 72 | 1028.4 |
| 20260901012030 | 63 | 197 | 3.0 | 4.0 | 0.00 | 0.00 | 0.00 | 62 | 1028.3 |
| 20260901011030 | 63 | 189 | 3.0 | 4.0 | 0.00 | 0.00 | 0.00 | 61 | 1028.2 |
| 20260901010030 | 63 | 292 | 3.0 | 5.0 | 0.00 | 0.00 | 0.00 | 61 | 1028.2 |
| 20260901005022 | 63 | 250 | 4.0 | 6.0 | 0.00 | 0.00 | 0.00 | 62 | 1028.0 |
| 20260901004022 | 64 | 215 | 7.0 | 10.0 | 0.00 | 0.00 | 0.00 | 58 | 1027.7 |
| 20260901003039 | 65 | 193 | 9.0 | 11.0 | 0.00 | 0.00 | 0.00 | 55 | 1027.4 |
| 20260901002019 | 65 | 187 | 10.0 | 14.0 | 0.00 | 0.00 | 0.00 | 54 | 1027.3 |
| 20260901001059 | 66 | 187 | 11.0 | 15.0 | 0.00 | 0.00 | 0.00 | 52 | 1027.3 |
| 20260901000017 | 67 | 213 | 10.0 | 12.0 | 0.00 | 0.00 | 0.00 | 53 | 1027.3 |
| 20260831235020 | 68 | 189 | 11.0 | 15.0 | 0.00 | 0.00 | 0.00 | 48 | 1027.3 |
| 20260831234020 | 68 | 193 | 11.0 | 15.0 | 0.00 | 0.00 | 0.00 | 48 | 1027.2 |
| 20260831233021 | 69 | 189 | 11.0 | 15.0 | 0.00 | 0.00 | 0.00 | 47 | 1027.1 |
| 20260831232017 | 69 | 185 | 9.0 | 13.0 | 0.00 | 0.00 | 0.00 | 47 | 1027.1 |
| 20260831231018 | 70 | 185 | 8.0 | 12.0 | 0.00 | 0.00 | 0.00 | 45 | 1027.1 |
| 20260831230041 | 70 | 175 | 10.0 | 14.0 | 0.00 | 0.00 | 0.00 | 45 | 1027.2 |
| 20260831225038 | 70 | 173 | 8.0 | 14.0 | 0.00 | 0.00 | 0.00 | 44 | 1027.4 |
| 20260831224018 | 70 | 181 | 9.0 | 14.0 | 0.00 | 0.00 | 0.00 | 43 | 1027.6 |
| 20260831223019 | 70 | 178 | 11.0 | 18.0 | 0.00 | 0.00 | 0.00 | 44 | 1027.7 |
| 20260831222017 | 71 | 183 | 12.0 | 18.0 | 0.00 | 0.00 | 0.00 | 44 | 1027.8 |
| 20260831221019 | 71 | 173 | 12.0 | 18.0 | 0.00 | 0.00 | 0.00 | 42 | 1027.9 |
| 20260831220019 | 69 | 169 | 9.0 | 14.0 | 0.00 | 0.00 | 0.00 | 42 | 1028.1 |
| 20260831215019 | 70 | 184 | 12.0 | 17.0 | 0.00 | 0.00 | 0.00 | 46 | 1028.3 |
| 20260831214017 | 71 | 200 | 12.0 | 18.0 | 0.00 | 0.00 | 0.00 | 40 | 1028.4 |
| 20260831213017 | 71 | 249 | 7.0 | 13.0 | 0.00 | 0.00 | 0.00 | 35 | 1028.4 |
| 20260831212020 | 71 | 269 | 10.0 | 14.0 | 0.00 | 0.00 | 0.00 | 33 | 1028.3 |
| 20260831211040 | 70 | 271 | 4.0 | 8.0 | 0.00 | 0.00 | 0.00 | 38 | 1028.5 |
| 20260831210018 | 70 | 42 | 4.0 | 7.0 | 0.00 | 0.00 | 0.00 | 39 | 1028.3 |
| 20260831205019 | 71 | 358 | 4.0 | 8.0 | 0.00 | 0.00 | 0.00 | 38 | 1028.4 |
| 20260831204020 | 72 | 80 | 3.0 | 7.0 | 0.00 | 0.00 | 0.00 | 38 | 1028.3 |
| 20260831203019 | 72 | 154 | 2.0 | 4.0 | 0.00 | 0.00 | 0.00 | 38 | 1028.4 |
| 20260831202019 | 72 | 84 | 5.0 | 9.0 | 0.00 | 0.00 | 0.00 | 38 | 1028.6 |
| 20260831201019 | 72 | 178 | 3.0 | 7.0 | 0.00 | 0.00 | 0.00 | 39 | 1028.8 |
| 20260831200019 | 72 | 5 | 4.0 | 7.0 | 0.00 | 0.00 | 0.00 | 39 | 1028.9 |
| 20260831195019 | 70 | 134 | 2.0 | 6.0 | 0.00 | 0.00 | 0.00 | 42 | 1029.2 |
| 20260831194101 | 69 | 6 | 3.0 | 8.0 | 0.00 | 0.00 | 0.00 | 43 | 1029.4 |
| 20260831193020 | 69 | 39 | 5.0 | 8.0 | 0.00 | 0.00 | 0.00 | 44 | 1029.4 |
| 20260831192020 | 68 | 52 | 5.0 | 8.0 | 0.00 | 0.00 | 0.00 | 46 | 1029.6 |
| 20260831191021 | 67 | 91 | 2.0 | 3.0 | 0.00 | 0.00 | 0.00 | 46 | 1029.8 |
| 20260831190020 | 66 | 0 | 2.0 | 3.0 | 0.00 | 0.00 | 0.00 | 46 | 1029.8 |
| 20260831185021 | 66 | 347 | 2.0 | 5.0 | 0.00 | 0.00 | 0.00 | 49 | 1030.1 |
| 20260831184021 | 65 | 345 | 5.0 | 6.0 | 0.00 | 0.00 | 0.00 | 52 | 1030.1 |
| 20260831183021 | 65 | 317 | 3.0 | 5.0 | 0.00 | 0.00 | 0.00 | 56 | 1030.3 |
| 20260831182022 | 65 | 234 | 3.0 | 6.0 | 0.00 | 0.00 | 0.00 | 51 | 1030.4 |
| 20260831181022 | 63 | 248 | 6.0 | 8.0 | 0.00 | 0.00 | 0.00 | 54 | 1030.5 |
| 20260831180022 | 60 | 348 | 2.0 | 3.0 | 0.00 | 0.00 | 0.00 | 68 | 1030.9 |
| 20260831175022 | 61 | 332 | 3.0 | 4.0 | 0.00 | 0.00 | 0.00 | 71 | 1031.1 |
| 20260831174022 | 61 | 259 | 3.0 | 3.0 | 0.00 | 0.00 | 0.00 | 67 | 1030.9 |
| 20260831172106 | 64 | 275 | 3.0 | 5.0 | 0.00 | 0.00 | 0.00 | 61 | 1030.7 |
| 20260831171106 | 65 | 316 | 1.0 | 2.0 | 0.00 | 0.00 | 0.00 | 48 | 1030.3 |
| 20260831170106 | 65 | 224 | 5.0 | 6.0 | 0.00 | 0.00 | 0.00 | 49 | 1030.7 |
| 20260831165106 | 64 | 180 | 5.0 | 7.0 | 0.00 | 0.00 | 0.00 | 52 | 1030.6 |
| 20260831164127 | 64 | 170 | 5.0 | 7.0 | 0.00 | 0.00 | 0.00 | 52 | 1030.7 |
| 20260831163107 | 64 | 185 | 7.0 | 8.0 | 0.00 | 0.00 | 0.00 | 51 | 1030.7 |
| 20260831162107 | 63 | 185 | 2.0 | 2.0 | 0.00 | 0.00 | 0.00 | 58 | 1030.6 |
| 20260831161128 | 0 | 186 | 3.0 | 3.0 | 0.00 | 0.00 | 0.00 | 1030.5 | |
| 20260831071518 | 54 | 140 | 8.0 | 9.0 | 0.00 | 0.00 | 0.00 | 79 | 1029.8 |
| 20260831070516 | 53 | 124 | 3.0 | 4.0 | 0.00 | 0.00 | 0.00 | 81 | 1030.3 |
| 20260831065518 | 54 | 109 | 2.0 | 3.0 | 0.00 | 0.00 | 0.00 | 83 | 1030.5 |
| 20260831064519 | 54 | 67 | 4.0 | 5.0 | 0.00 | 0.00 | 0.00 | 83 | 1030.7 |
| 20260831063539 | 54 | 67 | 6.0 | 7.0 | 0.00 | 0.00 | 0.00 | 83 | 1030.9 |
| 20260831062519 | 54 | 51 | 6.0 | 7.0 | 0.00 | 0.00 | 0.00 | 82 | 1031.0 |
| 20260831061517 | 55 | 37 | 6.0 | 7.0 | 0.00 | 0.00 | 0.00 | 81 | 1031.0 |
| 20260831060538 | 55 | 21 | 6.0 | 8.0 | 0.00 | 0.00 | 0.00 | 78 | 1031.0 |
| 20260831055538 | 54 | 2 | 6.0 | 7.0 | 0.00 | 0.00 | 0.00 | 80 | 1031.2 |
| 20260831054518 | 54 | 1 | 3.0 | 4.0 | 0.00 | 0.00 | 0.00 | 81 | 1030.9 |
| 20260831053619 | 55 | 336 | 3.0 | 5.0 | 0.00 | 0.00 | 0.00 | 77 | 1030.4 |
| 20260831052518 | 54 | 288 | 4.0 | 5.0 | 0.00 | 0.00 | 0.00 | 80 | 1030.2 |
| 20260831051519 | 54 | 242 | 4.0 | 5.0 | 0.00 | 0.00 | 0.00 | 80 | 1030.0 |
| 20260831050519 | 55 | 205 | 3.0 | 3.0 | 0.00 | 0.00 | 0.00 | 78 | 1030.2 |
| 20260831045519 | 56 | 217 | 1.0 | 2.0 | 0.00 | 0.00 | 0.00 | 76 | 1030.0 |
| 20260831044519 | 58 | 56 | 5.0 | 7.0 | 0.00 | 0.00 | 0.00 | 68 | 1029.9 |
| 20260831043558 | 57 | 47 | 7.0 | 11.0 | 0.00 | 0.00 | 0.00 | 68 | 1029.9 |
| 20260831042520 | 55 | 32 | 6.0 | 9.0 | 0.00 | 0.00 | 0.00 | 76 | 1029.9 |
| 20260831041701 | 55 | 22 | 8.0 | 11.0 | 0.00 | 0.00 | 0.00 | 80 | 1029.9 |
| 20260831040519 | 55 | 3 | 11.0 | 18.0 | 0.00 | 0.00 | 0.00 | 79 | 1029.9 |
| 20260831035519 | 56 | 358 | 9.0 | 13.0 | 0.00 | 0.00 | 0.00 | 75 | 1029.7 |
| 20260831034520 | 56 | 333 | 6.0 | 9.0 | 0.00 | 0.00 | 0.00 | 73 | 1029.5 |
| 20260831033559 | 56 | 355 | 6.0 | 10.0 | 0.00 | 0.00 | 0.00 | 69 | 1029.4 |
| 20260831032521 | 56 | 331 | 4.0 | 7.0 | 0.00 | 0.00 | 0.00 | 71 | 1029.2 |